owner,sensor,date,latitude,longitude,air_pressure(mBar),qcFlag 
TABS,ioos:station:wmo:42044:1,2017-01-05T00:00:00Z,26.1914,-97.0507,1014.52,11111222 
TABS,ioos:station:wmo:42044:1,2017-01-05T00:30:00Z,26.1914,-97.0507,1014.77,11111222 
TABS,ioos:station:wmo:42044:1,2017-01-05T01:00:00Z,26.1914,-97.0507,1014.94,11111222 
TABS,ioos:station:wmo:42044:1,2017-01-05T01:30:00Z,26.1914,-97.0507,1015.05,11111222 
TABS,ioos:station:wmo:42044:1,2017-01-05T02:00:00Z,26.1914,-97.0507,1014.91,11111222 
TABS,ioos:station:wmo:42044:1,2017-01-05T02:30:00Z,26.1914,-97.0507,1015.47,11111222 
TABS,ioos:station:wmo:42044:1,2017-01-05T03:00:00Z,26.1914,-97.0507,1015.6,11111222 
TABS,ioos:station:wmo:42044:1,2017-01-05T03:30:00Z,26.1914,-97.0507,1015.54,11111222 
TABS,ioos:station:wmo:42044:1,2017-01-05T04:00:00Z,26.1914,-97.0507,1015.43,11111222 
TABS,ioos:station:wmo:42044:1,2017-01-05T04:30:00Z,26.1914,-97.0507,1015.39,11111222 
TABS,ioos:station:wmo:42044:1,2017-01-05T05:00:00Z,26.1914,-97.0507,1015.08,11111222 
TABS,ioos:station:wmo:42044:1,2017-01-05T05:30:00Z,26.1914,-97.0507,1014.59,11111222 
TABS,ioos:station:wmo:42044:1,2017-01-05T06:00:00Z,26.1914,-97.0507,1014.34,11111222 
TABS,ioos:station:wmo:42044:1,2017-01-05T06:30:00Z,26.1914,-97.0507,1013.9,11111222 
TABS,ioos:station:wmo:42044:1,2017-01-05T07:00:00Z,26.1914,-97.0507,1013.16,11111222 
TABS,ioos:station:wmo:42044:1,2017-01-05T07:30:00Z,26.1914,-97.0507,1013.03,11111222 
TABS,ioos:station:wmo:42044:1,2017-01-05T08:00:00Z,26.1914,-97.0507,1012.24,11111222 
TABS,ioos:station:wmo:42044:1,2017-01-05T08:30:00Z,26.1914,-97.0507,1011.81,11111222 
TABS,ioos:station:wmo:42044:1,2017-01-05T09:00:00Z,26.1914,-97.0507,1011.14,11111222 
TABS,ioos:station:wmo:42044:1,2017-01-05T09:30:00Z,26.1914,-97.0507,1010.92,11111222 
TABS,ioos:station:wmo:42044:1,2017-01-05T10:00:00Z,26.1914,-97.0507,1011.22,11111222 
TABS,ioos:station:wmo:42044:1,2017-01-05T10:30:00Z,26.1914,-97.0507,1010.98,11111222 
TABS,ioos:station:wmo:42044:1,2017-01-05T11:00:00Z,26.1914,-97.0507,1010.93,11111222 
TABS,ioos:station:wmo:42044:1,2017-01-05T11:30:00Z,26.1914,-97.0507,1011.26,11111222 
TABS,ioos:station:wmo:42044:1,2017-01-05T12:00:00Z,26.1914,-97.0507,1011.58,11111222 
TABS,ioos:station:wmo:42044:1,2017-01-05T12:30:00Z,26.1914,-97.0507,1011.25,11111222 
TABS,ioos:station:wmo:42044:1,2017-01-05T13:00:00Z,26.1914,-97.0507,1011.27,11111222 
TABS,ioos:station:wmo:42044:1,2017-01-05T13:30:00Z,26.1914,-97.0507,1011.44,11111222 
TABS,ioos:station:wmo:42044:1,2017-01-05T14:00:00Z,26.1914,-97.0507,1011.52,11111222 
TABS,ioos:station:wmo:42044:1,2017-01-05T14:30:00Z,26.1914,-97.0507,1011.89,11111222 
TABS,ioos:station:wmo:42044:1,2017-01-05T15:00:00Z,26.1914,-97.0507,1011.76,11111222 
TABS,ioos:station:wmo:42044:1,2017-01-05T15:30:00Z,26.1914,-97.0507,1012.09,11111222 
TABS,ioos:station:wmo:42044:1,2017-01-05T16:00:00Z,26.1914,-97.0507,1012.48,11111222 
TABS,ioos:station:wmo:42044:1,2017-01-05T16:30:00Z,26.1914,-97.0507,1012.32,11111222 
TABS,ioos:station:wmo:42044:1,2017-01-05T17:00:00Z,26.1914,-97.0507,1012.13,11111222 
TABS,ioos:station:wmo:42044:1,2017-01-05T17:30:00Z,26.1914,-97.0507,1011.83,11111222 
TABS,ioos:station:wmo:42044:1,2017-01-05T18:00:00Z,26.1914,-97.0507,1011.23,11111222 
TABS,ioos:station:wmo:42044:1,2017-01-05T18:30:00Z,26.1914,-97.0507,1010.61,11111222 
TABS,ioos:station:wmo:42044:1,2017-01-05T19:00:00Z,26.1914,-97.0507,1009.73,11111222 
TABS,ioos:station:wmo:42044:1,2017-01-05T19:30:00Z,26.1914,-97.0507,1009.02,11111222 
TABS,ioos:station:wmo:42044:1,2017-01-05T20:00:00Z,26.1914,-97.0507,1008.23,11111222 
TABS,ioos:station:wmo:42044:1,2017-01-05T20:30:00Z,26.1914,-97.0507,1007.64,11111222 
TABS,ioos:station:wmo:42044:1,2017-01-05T21:00:00Z,26.1914,-97.0507,1007.42,11111222 
TABS,ioos:station:wmo:42044:1,2017-01-05T21:30:00Z,26.1914,-97.0507,1007.25,11111222 
TABS,ioos:station:wmo:42044:1,2017-01-05T22:00:00Z,26.1914,-97.0507,1007.68,11111222 
TABS,ioos:station:wmo:42044:1,2017-01-05T22:30:00Z,26.1914,-97.0507,1007.82,11111222 
TABS,ioos:station:wmo:42044:1,2017-01-05T23:00:00Z,26.1914,-97.0507,1008.04,11111222 
TABS,ioos:station:wmo:42044:1,2017-01-05T23:30:00Z,26.1914,-97.0507,1008.05,11111222 
TABS,ioos:station:wmo:42044:1,2017-01-06T00:00:00Z,26.1914,-97.0507,1008.13,11111222 
TABS,ioos:station:wmo:42044:1,2017-01-06T00:30:00Z,26.1914,-97.0507,1008.27,11111222 
TABS,ioos:station:wmo:42044:1,2017-01-06T01:00:00Z,26.1914,-97.0507,1008.43,11111222 
TABS,ioos:station:wmo:42044:1,2017-01-06T01:30:00Z,26.1914,-97.0507,1008.69,11111222 
TABS,ioos:station:wmo:42044:1,2017-01-06T02:00:00Z,26.1914,-97.0507,1009.09,11111222 
TABS,ioos:station:wmo:42044:1,2017-01-06T02:30:00Z,26.1914,-97.0507,1009.4,11111222 
TABS,ioos:station:wmo:42044:1,2017-01-06T03:00:00Z,26.1914,-97.0507,1009.64,11111222 
TABS,ioos:station:wmo:42044:1,2017-01-06T03:30:00Z,26.1914,-97.0507,1009.78,11111222 
TABS,ioos:station:wmo:42044:1,2017-01-06T04:00:00Z,26.1914,-97.0507,1009.65,11111222 
TABS,ioos:station:wmo:42044:1,2017-01-06T04:30:00Z,26.1914,-97.0507,1009.44,11111222 
TABS,ioos:station:wmo:42044:1,2017-01-06T05:00:00Z,26.1914,-97.0507,1009.53,11111222 
TABS,ioos:station:wmo:42044:1,2017-01-06T05:30:00Z,26.1914,-97.0507,1009.38,11111222 
TABS,ioos:station:wmo:42044:1,2017-01-06T06:00:00Z,26.1914,-97.0507,1009.4,11111222 
TABS,ioos:station:wmo:42044:1,2017-01-06T06:30:00Z,26.1914,-97.0507,1009.71,11111222 
TABS,ioos:station:wmo:42044:1,2017-01-06T07:00:00Z,26.1914,-97.0507,1009.64,11111222 
TABS,ioos:station:wmo:42044:1,2017-01-06T07:30:00Z,26.1914,-97.0507,1009.52,11111222 
TABS,ioos:station:wmo:42044:1,2017-01-06T08:00:00Z,26.1914,-97.0507,1009.31,11111222 
TABS,ioos:station:wmo:42044:1,2017-01-06T08:30:00Z,26.1914,-97.0507,1009.23,11111222 
TABS,ioos:station:wmo:42044:1,2017-01-06T09:00:00Z,26.1914,-97.0507,1009.46,11111222 
TABS,ioos:station:wmo:42044:1,2017-01-06T09:30:00Z,26.1914,-97.0507,1010.01,11111222 
TABS,ioos:station:wmo:42044:1,2017-01-06T10:00:00Z,26.1914,-97.0507,1010.0,11111222 
TABS,ioos:station:wmo:42044:1,2017-01-06T10:30:00Z,26.1914,-97.0507,1010.34,11111222 
TABS,ioos:station:wmo:42044:1,2017-01-06T11:00:00Z,26.1914,-97.0507,1010.37,11111222 
TABS,ioos:station:wmo:42044:1,2017-01-06T11:30:00Z,26.1914,-97.0507,1011.59,11111222 
TABS,ioos:station:wmo:42044:1,2017-01-06T12:00:00Z,26.1914,-97.0507,1011.41,11111222 
TABS,ioos:station:wmo:42044:1,2017-01-06T12:30:00Z,26.1914,-97.0507,1012.15,11111222 
TABS,ioos:station:wmo:42044:1,2017-01-06T13:00:00Z,26.1914,-97.0507,1013.25,11111222 
TABS,ioos:station:wmo:42044:1,2017-01-06T13:30:00Z,26.1914,-97.0507,1013.09,11111222 
TABS,ioos:station:wmo:42044:1,2017-01-06T14:00:00Z,26.1914,-97.0507,1014.34,11111222 
TABS,ioos:station:wmo:42044:1,2017-01-06T14:30:00Z,26.1914,-97.0507,1013.91,11111222 
TABS,ioos:station:wmo:42044:1,2017-01-06T15:00:00Z,26.1914,-97.0507,1014.22,11111222 
TABS,ioos:station:wmo:42044:1,2017-01-06T15:30:00Z,26.1914,-97.0507,1015.55,11111222 
TABS,ioos:station:wmo:42044:1,2017-01-06T16:00:00Z,26.1914,-97.0507,1016.21,11111222 
TABS,ioos:station:wmo:42044:1,2017-01-06T16:30:00Z,26.1914,-97.0507,1015.8,11111222 
TABS,ioos:station:wmo:42044:1,2017-01-06T17:00:00Z,26.1914,-97.0507,1016.33,11111222 
TABS,ioos:station:wmo:42044:1,2017-01-06T17:30:00Z,26.1914,-97.0507,1016.9,11111222 
TABS,ioos:station:wmo:42044:1,2017-01-06T18:00:00Z,26.1914,-97.0507,1016.62,11111222 
TABS,ioos:station:wmo:42044:1,2017-01-06T18:30:00Z,26.1914,-97.0507,1016.18,11111222 
TABS,ioos:station:wmo:42044:1,2017-01-06T19:00:00Z,26.1914,-97.0507,1016.27,11111222 
TABS,ioos:station:wmo:42044:1,2017-01-06T19:30:00Z,26.1914,-97.0507,1017.19,11111222 
TABS,ioos:station:wmo:42044:1,2017-01-06T20:00:00Z,26.1914,-97.0507,1017.23,11111222 
TABS,ioos:station:wmo:42044:1,2017-01-06T20:30:00Z,26.1914,-97.0507,1017.32,11111222 
TABS,ioos:station:wmo:42044:1,2017-01-06T21:00:00Z,26.1914,-97.0507,1016.6,11111222 
TABS,ioos:station:wmo:42044:1,2017-01-06T21:30:00Z,26.1914,-97.0507,1017.35,11111222 
TABS,ioos:station:wmo:42044:1,2017-01-06T22:00:00Z,26.1914,-97.0507,1018.17,11111222 
TABS,ioos:station:wmo:42044:1,2017-01-06T22:30:00Z,26.1914,-97.0507,1019.71,11111222 
TABS,ioos:station:wmo:42044:1,2017-01-06T23:00:00Z,26.1914,-97.0507,1019.19,11111222 
TABS,ioos:station:wmo:42044:1,2017-01-06T23:30:00Z,26.1914,-97.0507,1021.4,11111222 
TABS,ioos:station:wmo:42044:1,2017-01-07T00:00:00Z,26.1914,-97.0507,1021.72,11111222 
TABS,ioos:station:wmo:42044:1,2017-01-07T00:30:00Z,26.1914,-97.0507,1021.98,11111222 
TABS,ioos:station:wmo:42044:1,2017-01-07T01:00:00Z,26.1914,-97.0507,1022.63,11111222 
TABS,ioos:station:wmo:42044:1,2017-01-07T01:30:00Z,26.1914,-97.0507,1024.34,11111222 
TABS,ioos:station:wmo:42044:1,2017-01-07T02:00:00Z,26.1914,-97.0507,1024.96,11111222 
TABS,ioos:station:wmo:42044:1,2017-01-07T02:30:00Z,26.1914,-97.0507,1027.45,11111222 
TABS,ioos:station:wmo:42044:1,2017-01-07T03:00:00Z,26.1914,-97.0507,1027.8,11111222 
TABS,ioos:station:wmo:42044:1,2017-01-07T03:30:00Z,26.1914,-97.0507,1027.44,11111222 
TABS,ioos:station:wmo:42044:1,2017-01-07T04:00:00Z,26.1914,-97.0507,1028.27,11111222 
TABS,ioos:station:wmo:42044:1,2017-01-07T04:30:00Z,26.1914,-97.0507,1029.38,11111222 
TABS,ioos:station:wmo:42044:1,2017-01-07T05:00:00Z,26.1914,-97.0507,1029.31,11111222 
TABS,ioos:station:wmo:42044:1,2017-01-07T05:30:00Z,26.1914,-97.0507,1029.45,11111222 
TABS,ioos:station:wmo:42044:1,2017-01-07T06:00:00Z,26.1914,-97.0507,1030.83,11111222 
TABS,ioos:station:wmo:42044:1,2017-01-07T06:30:00Z,26.1914,-97.0507,1030.99,11111222 
TABS,ioos:station:wmo:42044:1,2017-01-07T07:00:00Z,26.1914,-97.0507,1031.38,11111222 
TABS,ioos:station:wmo:42044:1,2017-01-07T07:30:00Z,26.1914,-97.0507,1030.87,11111222 
TABS,ioos:station:wmo:42044:1,2017-01-07T08:00:00Z,26.1914,-97.0507,1031.45,11111222 
TABS,ioos:station:wmo:42044:1,2017-01-07T08:30:00Z,26.1914,-97.0507,1031.81,11111222 
TABS,ioos:station:wmo:42044:1,2017-01-07T09:00:00Z,26.1914,-97.0507,1032.0,11111222 
TABS,ioos:station:wmo:42044:1,2017-01-07T09:30:00Z,26.1914,-97.0507,1032.86,11111222 
TABS,ioos:station:wmo:42044:1,2017-01-07T10:00:00Z,26.1914,-97.0507,1033.11,11111222 
TABS,ioos:station:wmo:42044:1,2017-01-07T10:30:00Z,26.1914,-97.0507,1033.37,11111222 
TABS,ioos:station:wmo:42044:1,2017-01-07T11:00:00Z,26.1914,-97.0507,1034.33,11111222 
TABS,ioos:station:wmo:42044:1,2017-01-07T11:30:00Z,26.1914,-97.0507,1034.65,11111222 
TABS,ioos:station:wmo:42044:1,2017-01-07T12:00:00Z,26.1914,-97.0507,1035.08,11111222 
TABS,ioos:station:wmo:42044:1,2017-01-07T12:30:00Z,26.1914,-97.0507,1036.58,11111222 
TABS,ioos:station:wmo:42044:1,2017-01-07T13:00:00Z,26.1914,-97.0507,1035.81,11111222 
TABS,ioos:station:wmo:42044:1,2017-01-07T13:30:00Z,26.1914,-97.0507,1035.9,11111222 
TABS,ioos:station:wmo:42044:1,2017-01-07T14:00:00Z,26.1914,-97.0507,1037.08,11111222 
TABS,ioos:station:wmo:42044:1,2017-01-07T14:30:00Z,26.1914,-97.0507,1038.36,11111222 
TABS,ioos:station:wmo:42044:1,2017-01-07T15:00:00Z,26.1914,-97.0507,1038.19,11111222 
TABS,ioos:station:wmo:42044:1,2017-01-07T15:30:00Z,26.1914,-97.0507,1039.7,11111222 
TABS,ioos:station:wmo:42044:1,2017-01-07T16:00:00Z,26.1914,-97.0507,1039.63,11111222 
TABS,ioos:station:wmo:42044:1,2017-01-07T16:30:00Z,26.1914,-97.0507,1039.65,11111222 
TABS,ioos:station:wmo:42044:1,2017-01-07T17:00:00Z,26.1914,-97.0507,1039.01,11111222 
TABS,ioos:station:wmo:42044:1,2017-01-07T17:30:00Z,26.1914,-97.0507,1038.99,11111222 
TABS,ioos:station:wmo:42044:1,2017-01-07T18:00:00Z,26.1914,-97.0507,1038.61,11111222 
TABS,ioos:station:wmo:42044:1,2017-01-07T18:30:00Z,26.1914,-97.0507,1038.79,11111222 
TABS,ioos:station:wmo:42044:1,2017-01-07T19:00:00Z,26.1914,-97.0507,1037.86,11111222 
TABS,ioos:station:wmo:42044:1,2017-01-07T19:30:00Z,26.1914,-97.0507,1037.31,11111222 
TABS,ioos:station:wmo:42044:1,2017-01-07T20:00:00Z,26.1914,-97.0507,1037.66,11111222 
TABS,ioos:station:wmo:42044:1,2017-01-07T20:30:00Z,26.1914,-97.0507,1037.58,11111222 
TABS,ioos:station:wmo:42044:1,2017-01-07T21:00:00Z,26.1914,-97.0507,1036.98,11111222 
TABS,ioos:station:wmo:42044:1,2017-01-07T21:30:00Z,26.1914,-97.0507,1036.58,11111222 
TABS,ioos:station:wmo:42044:1,2017-01-07T22:00:00Z,26.1914,-97.0507,1036.98,11111222 
TABS,ioos:station:wmo:42044:1,2017-01-07T22:30:00Z,26.1914,-97.0507,1036.88,11111222 
TABS,ioos:station:wmo:42044:1,2017-01-07T23:00:00Z,26.1914,-97.0507,1037.25,11111222 
TABS,ioos:station:wmo:42044:1,2017-01-07T23:30:00Z,26.1914,-97.0507,1037.33,11111222 
TABS,ioos:station:wmo:42044:1,2017-01-08T00:00:00Z,26.1914,-97.0507,1038.02,11111222 
TABS,ioos:station:wmo:42044:1,2017-01-08T00:30:00Z,26.1914,-97.0507,1037.7,11111222 
TABS,ioos:station:wmo:42044:1,2017-01-08T01:00:00Z,26.1914,-97.0507,1037.97,11111222 
TABS,ioos:station:wmo:42044:1,2017-01-08T01:30:00Z,26.1914,-97.0507,1038.52,11111222 
TABS,ioos:station:wmo:42044:1,2017-01-08T02:00:00Z,26.1914,-97.0507,1038.81,11111222 
TABS,ioos:station:wmo:42044:1,2017-01-08T02:30:00Z,26.1914,-97.0507,1039.06,11111222 
TABS,ioos:station:wmo:42044:1,2017-01-08T03:00:00Z,26.1914,-97.0507,1039.61,11111222 
TABS,ioos:station:wmo:42044:1,2017-01-08T03:30:00Z,26.1914,-97.0507,1039.76,11111222 
TABS,ioos:station:wmo:42044:1,2017-01-08T04:00:00Z,26.1914,-97.0507,1040.11,11111222 
TABS,ioos:station:wmo:42044:1,2017-01-08T04:30:00Z,26.1914,-97.0507,1040.14,11111222 
TABS,ioos:station:wmo:42044:1,2017-01-08T05:00:00Z,26.1914,-97.0507,1039.98,11111222 
TABS,ioos:station:wmo:42044:1,2017-01-08T05:30:00Z,26.1914,-97.0507,1040.36,11111222 
TABS,ioos:station:wmo:42044:1,2017-01-08T06:00:00Z,26.1914,-97.0507,1039.85,11111222 
TABS,ioos:station:wmo:42044:1,2017-01-08T06:30:00Z,26.1914,-97.0507,1039.48,11111222 
TABS,ioos:station:wmo:42044:1,2017-01-08T07:00:00Z,26.1914,-97.0507,1039.48,11111222 
TABS,ioos:station:wmo:42044:1,2017-01-08T07:30:00Z,26.1914,-97.0507,1039.07,11111222 
TABS,ioos:station:wmo:42044:1,2017-01-08T08:00:00Z,26.1914,-97.0507,1039.24,11111222 
TABS,ioos:station:wmo:42044:1,2017-01-08T08:30:00Z,26.1914,-97.0507,1038.48,11111222 
TABS,ioos:station:wmo:42044:1,2017-01-08T09:00:00Z,26.1914,-97.0507,1038.33,11111222 
TABS,ioos:station:wmo:42044:1,2017-01-08T09:30:00Z,26.1914,-97.0507,1038.2,11111222 
TABS,ioos:station:wmo:42044:1,2017-01-08T10:00:00Z,26.1914,-97.0507,1038.35,11111222 
TABS,ioos:station:wmo:42044:1,2017-01-08T10:30:00Z,26.1914,-97.0507,1037.51,11111222 
TABS,ioos:station:wmo:42044:1,2017-01-08T11:00:00Z,26.1914,-97.0507,1037.74,11111222 
TABS,ioos:station:wmo:42044:1,2017-01-08T11:30:00Z,26.1914,-97.0507,1037.36,11111222 
TABS,ioos:station:wmo:42044:1,2017-01-08T12:00:00Z,26.1914,-97.0507,1036.8,11111222 
TABS,ioos:station:wmo:42044:1,2017-01-08T12:30:00Z,26.1914,-97.0507,1036.77,11111222 
TABS,ioos:station:wmo:42044:1,2017-01-08T13:00:00Z,26.1914,-97.0507,1036.18,11111222 
TABS,ioos:station:wmo:42044:1,2017-01-08T13:30:00Z,26.1914,-97.0507,1036.73,11111222 
TABS,ioos:station:wmo:42044:1,2017-01-08T14:00:00Z,26.1914,-97.0507,1037.1,11111222 
TABS,ioos:station:wmo:42044:1,2017-01-08T14:30:00Z,26.1914,-97.0507,1037.35,11111222 
TABS,ioos:station:wmo:42044:1,2017-01-08T15:00:00Z,26.1914,-97.0507,1037.43,11111222 
TABS,ioos:station:wmo:42044:1,2017-01-08T15:30:00Z,26.1914,-97.0507,1037.72,11111222 
TABS,ioos:station:wmo:42044:1,2017-01-08T16:00:00Z,26.1914,-97.0507,1037.85,11111222 
TABS,ioos:station:wmo:42044:1,2017-01-08T16:30:00Z,26.1914,-97.0507,1037.71,11111222 
TABS,ioos:station:wmo:42044:1,2017-01-08T17:00:00Z,26.1914,-97.0507,1037.08,11111222 
TABS,ioos:station:wmo:42044:1,2017-01-08T17:30:00Z,26.1914,-97.0507,1036.54,11111222 
TABS,ioos:station:wmo:42044:1,2017-01-08T18:00:00Z,26.1914,-97.0507,1035.78,11111222 
TABS,ioos:station:wmo:42044:1,2017-01-08T18:30:00Z,26.1914,-97.0507,1035.11,11111222 
TABS,ioos:station:wmo:42044:1,2017-01-08T19:00:00Z,26.1914,-97.0507,1034.38,11111222 
TABS,ioos:station:wmo:42044:1,2017-01-08T19:30:00Z,26.1914,-97.0507,1033.61,11111222 
TABS,ioos:station:wmo:42044:1,2017-01-08T20:00:00Z,26.1914,-97.0507,1033.43,11111222 
TABS,ioos:station:wmo:42044:1,2017-01-08T20:30:00Z,26.1914,-97.0507,1032.84,11111222 
TABS,ioos:station:wmo:42044:1,2017-01-08T21:00:00Z,26.1914,-97.0507,1032.46,11111222 
TABS,ioos:station:wmo:42044:1,2017-01-08T21:30:00Z,26.1914,-97.0507,1032.46,11111222 
TABS,ioos:station:wmo:42044:1,2017-01-08T22:00:00Z,26.1914,-97.0507,1032.46,11111222 
TABS,ioos:station:wmo:42044:1,2017-01-08T22:30:00Z,26.1914,-97.0507,1032.12,11111222 
TABS,ioos:station:wmo:42044:1,2017-01-08T23:00:00Z,26.1914,-97.0507,1031.9,11111222 
TABS,ioos:station:wmo:42044:1,2017-01-08T23:30:00Z,26.1914,-97.0507,1032.15,11111222 
TABS,ioos:station:wmo:42044:1,2017-01-09T00:00:00Z,26.1914,-97.0507,1032.45,11111222 
TABS,ioos:station:wmo:42044:1,2017-01-09T00:30:00Z,26.1914,-97.0507,1032.39,11111222 
TABS,ioos:station:wmo:42044:1,2017-01-09T01:00:00Z,26.1914,-97.0507,1032.45,11111222 
TABS,ioos:station:wmo:42044:1,2017-01-09T01:30:00Z,26.1914,-97.0507,1032.67,11111222 
TABS,ioos:station:wmo:42044:1,2017-01-09T02:00:00Z,26.1914,-97.0507,1032.49,11111222 
TABS,ioos:station:wmo:42044:1,2017-01-09T02:30:00Z,26.1914,-97.0507,1032.27,11111222 
TABS,ioos:station:wmo:42044:1,2017-01-09T03:00:00Z,26.1914,-97.0507,1032.24,11111222 
TABS,ioos:station:wmo:42044:1,2017-01-09T03:30:00Z,26.1914,-97.0507,1031.98,11111222 
TABS,ioos:station:wmo:42044:1,2017-01-09T04:00:00Z,26.1914,-97.0507,1031.85,11111222 
TABS,ioos:station:wmo:42044:1,2017-01-09T04:30:00Z,26.1914,-97.0507,1031.74,11111222 
TABS,ioos:station:wmo:42044:1,2017-01-09T05:00:00Z,26.1914,-97.0507,1031.16,11111222 
TABS,ioos:station:wmo:42044:1,2017-01-09T05:30:00Z,26.1914,-97.0507,1030.96,11111222 
TABS,ioos:station:wmo:42044:1,2017-01-09T06:00:00Z,26.1914,-97.0507,1030.51,11111222 
TABS,ioos:station:wmo:42044:1,2017-01-09T06:30:00Z,26.1914,-97.0507,1030.22,11111222 
TABS,ioos:station:wmo:42044:1,2017-01-09T07:00:00Z,26.1914,-97.0507,1030.01,11111222 
TABS,ioos:station:wmo:42044:1,2017-01-09T07:30:00Z,26.1914,-97.0507,1029.37,11111222 
TABS,ioos:station:wmo:42044:1,2017-01-09T08:00:00Z,26.1914,-97.0507,1029.23,11111222 
TABS,ioos:station:wmo:42044:1,2017-01-09T08:30:00Z,26.1914,-97.0507,1029.08,11111222 
TABS,ioos:station:wmo:42044:1,2017-01-09T09:00:00Z,26.1914,-97.0507,1029.01,11111222 
TABS,ioos:station:wmo:42044:1,2017-01-09T09:30:00Z,26.1914,-97.0507,1028.52,11111222 
TABS,ioos:station:wmo:42044:1,2017-01-09T10:00:00Z,26.1914,-97.0507,1028.13,11111222 
TABS,ioos:station:wmo:42044:1,2017-01-09T10:30:00Z,26.1914,-97.0507,1027.85,11111222 
TABS,ioos:station:wmo:42044:1,2017-01-09T11:00:00Z,26.1914,-97.0507,1028.14,11111222 
TABS,ioos:station:wmo:42044:1,2017-01-09T11:30:00Z,26.1914,-97.0507,1028.08,11111222 
TABS,ioos:station:wmo:42044:1,2017-01-09T12:00:00Z,26.1914,-97.0507,1028.05,11111222 
TABS,ioos:station:wmo:42044:1,2017-01-09T12:30:00Z,26.1914,-97.0507,1028.11,11111222 
TABS,ioos:station:wmo:42044:1,2017-01-09T13:00:00Z,26.1914,-97.0507,1028.28,11111222 
TABS,ioos:station:wmo:42044:1,2017-01-09T13:30:00Z,26.1914,-97.0507,1028.44,11111222 
TABS,ioos:station:wmo:42044:1,2017-01-09T14:00:00Z,26.1914,-97.0507,1028.88,11111222 
TABS,ioos:station:wmo:42044:1,2017-01-09T14:30:00Z,26.1914,-97.0507,1029.13,11111222 
TABS,ioos:station:wmo:42044:1,2017-01-09T15:00:00Z,26.1914,-97.0507,1029.0,11111222 
TABS,ioos:station:wmo:42044:1,2017-01-09T15:30:00Z,26.1914,-97.0507,1029.34,11111222 
TABS,ioos:station:wmo:42044:1,2017-01-09T16:00:00Z,26.1914,-97.0507,1029.53,11111222 
TABS,ioos:station:wmo:42044:1,2017-01-09T16:30:00Z,26.1914,-97.0507,1029.32,11111222 
TABS,ioos:station:wmo:42044:1,2017-01-09T17:00:00Z,26.1914,-97.0507,1028.95,11111222 
TABS,ioos:station:wmo:42044:1,2017-01-09T17:30:00Z,26.1914,-97.0507,1028.56,11111222 
TABS,ioos:station:wmo:42044:1,2017-01-09T18:00:00Z,26.1914,-97.0507,1027.82,11111222 
TABS,ioos:station:wmo:42044:1,2017-01-09T18:30:00Z,26.1914,-97.0507,1026.81,11111222 
TABS,ioos:station:wmo:42044:1,2017-01-09T19:00:00Z,26.1914,-97.0507,1026.26,11111222 
TABS,ioos:station:wmo:42044:1,2017-01-09T19:30:00Z,26.1914,-97.0507,1025.76,11111222 
TABS,ioos:station:wmo:42044:1,2017-01-09T20:00:00Z,26.1914,-97.0507,1025.39,11111222 
TABS,ioos:station:wmo:42044:1,2017-01-09T20:30:00Z,26.1914,-97.0507,1025.07,11111222 
TABS,ioos:station:wmo:42044:1,2017-01-09T21:00:00Z,26.1914,-97.0507,1024.76,11111222 
TABS,ioos:station:wmo:42044:1,2017-01-09T21:30:00Z,26.1914,-97.0507,1024.61,11111222 
TABS,ioos:station:wmo:42044:1,2017-01-09T22:00:00Z,26.1914,-97.0507,1024.55,11111222 
TABS,ioos:station:wmo:42044:1,2017-01-09T22:30:00Z,26.1914,-97.0507,1024.34,11111222 
TABS,ioos:station:wmo:42044:1,2017-01-09T23:00:00Z,26.1914,-97.0507,1024.03,11111222 
TABS,ioos:station:wmo:42044:1,2017-01-09T23:30:00Z,26.1914,-97.0507,1024.08,11111222 
TABS,ioos:station:wmo:42044:1,2017-01-10T00:00:00Z,26.1914,-97.0507,1024.02,11111222 
TABS,ioos:station:wmo:42044:1,2017-01-10T00:30:00Z,26.1914,-97.0507,1023.85,11111222 
TABS,ioos:station:wmo:42044:1,2017-01-10T01:00:00Z,26.1914,-97.0507,1024.05,11111222 
TABS,ioos:station:wmo:42044:1,2017-01-10T01:30:00Z,26.1914,-97.0507,1024.21,11111222 
TABS,ioos:station:wmo:42044:1,2017-01-10T02:00:00Z,26.1914,-97.0507,1024.26,11111222 
TABS,ioos:station:wmo:42044:1,2017-01-10T02:30:00Z,26.1914,-97.0507,1024.23,11111222 
TABS,ioos:station:wmo:42044:1,2017-01-10T03:00:00Z,26.1914,-97.0507,1023.98,11111222 
TABS,ioos:station:wmo:42044:1,2017-01-10T03:30:00Z,26.1914,-97.0507,1023.96,11111222 
TABS,ioos:station:wmo:42044:1,2017-01-10T04:00:00Z,26.1914,-97.0507,1024.05,11111222 
TABS,ioos:station:wmo:42044:1,2017-01-10T04:30:00Z,26.1914,-97.0507,1023.82,11111222 
TABS,ioos:station:wmo:42044:1,2017-01-10T05:00:00Z,26.1914,-97.0507,1023.63,11111222 
TABS,ioos:station:wmo:42044:1,2017-01-10T05:30:00Z,26.1914,-97.0507,1023.0,11111222 
TABS,ioos:station:wmo:42044:1,2017-01-10T06:00:00Z,26.1914,-97.0507,1022.29,11111222 
TABS,ioos:station:wmo:42044:1,2017-01-10T06:30:00Z,26.1914,-97.0507,1021.98,11111222 
TABS,ioos:station:wmo:42044:1,2017-01-10T07:00:00Z,26.1914,-97.0507,1021.55,11111222 
TABS,ioos:station:wmo:42044:1,2017-01-10T07:30:00Z,26.1914,-97.0507,1021.28,11111222 
TABS,ioos:station:wmo:42044:1,2017-01-10T08:00:00Z,26.1914,-97.0507,1021.04,11111222 
TABS,ioos:station:wmo:42044:1,2017-01-10T08:30:00Z,26.1914,-97.0507,1020.7,11111222 
TABS,ioos:station:wmo:42044:1,2017-01-10T09:00:00Z,26.1914,-97.0507,1020.6,11111222 
TABS,ioos:station:wmo:42044:1,2017-01-10T09:30:00Z,26.1914,-97.0507,1020.32,11111222 
TABS,ioos:station:wmo:42044:1,2017-01-10T10:00:00Z,26.1914,-97.0507,1020.58,11111222 
TABS,ioos:station:wmo:42044:1,2017-01-10T10:30:00Z,26.1914,-97.0507,1020.25,11111222 
TABS,ioos:station:wmo:42044:1,2017-01-10T11:00:00Z,26.1914,-97.0507,1019.74,11111222 
TABS,ioos:station:wmo:42044:1,2017-01-10T11:30:00Z,26.1914,-97.0507,1019.84,11111222 
TABS,ioos:station:wmo:42044:1,2017-01-10T12:00:00Z,26.1914,-97.0507,1019.87,11111222 
TABS,ioos:station:wmo:42044:1,2017-01-10T12:30:00Z,26.1914,-97.0507,1019.64,11111222 
TABS,ioos:station:wmo:42044:1,2017-01-10T13:00:00Z,26.1914,-97.0507,1020.21,11111222 
TABS,ioos:station:wmo:42044:1,2017-01-10T13:30:00Z,26.1914,-97.0507,1020.24,11111222 
TABS,ioos:station:wmo:42044:1,2017-01-10T14:00:00Z,26.1914,-97.0507,1019.84,11111222 
TABS,ioos:station:wmo:42044:1,2017-01-10T14:30:00Z,26.1914,-97.0507,1019.83,11111222 
TABS,ioos:station:wmo:42044:1,2017-01-10T15:00:00Z,26.1914,-97.0507,1019.06,11111222 
TABS,ioos:station:wmo:42044:1,2017-01-10T15:30:00Z,26.1914,-97.0507,1020.48,11111222 
TABS,ioos:station:wmo:42044:1,2017-01-10T16:00:00Z,26.1914,-97.0507,1021.13,11111222 
TABS,ioos:station:wmo:42044:1,2017-01-10T16:30:00Z,26.1914,-97.0507,1020.86,11111222 
TABS,ioos:station:wmo:42044:1,2017-01-10T17:00:00Z,26.1914,-97.0507,1020.59,11111222 
TABS,ioos:station:wmo:42044:1,2017-01-10T17:30:00Z,26.1914,-97.0507,1020.12,11111222 
TABS,ioos:station:wmo:42044:1,2017-01-10T18:00:00Z,26.1914,-97.0507,1019.84,11111222 
TABS,ioos:station:wmo:42044:1,2017-01-10T18:30:00Z,26.1914,-97.0507,1019.04,11111222 